Weather in Nagua

Dominican Republic     19°22′20″N   69°50′39″W
temp.,
°C
wind,
m/s
gust,
m/s
humid.,
%
clouds,
%
prec.,
mm/h
press.,
hPa
HPBL,
m
19 april, mon
mon1923:00+22s24901 0.0 1018140
02:00+21s139619 0.0 101792
05:00+21s2396100 0.0 101792
08:00+24s2480100 0.0 1019321
11:00+31ese3546100 0.0 10181299
14:00+33e35403 0.0 10151664
17:00+31ese464812 0.0 10141134
20:00+26sse38675 0.0 1017355
20 april, tue
tue2023:00+23s26855 0.0 1018228
02:00+22ssw24944 0.0 1017124
05:00+21s129615 0.0 101776
08:00+25s25770 0.0 1019440
11:00+31ese35460 0.0 10181553
14:00+31ene45480 0.0 10161125
17:00+29e355837 0.0 1015723
20:00+25se37720 0.0 1017288
21 april, wed
wed2123:00+23sse24850 0.0 1018167
02:00+21s12923 0.0 101773
05:00+20wsw119617 0.0 101734
08:00+23s1382100 0.0 1019231
11:00+29e355149 0.0 10191386
14:00+31ene454831 0.0 10161110
17:00+29e475471 0.0 1015716
20:00+25ese4876100 0.0 1017547
22 april, thu
thu2223:00+24ese258213 0.0 1018297
02:00+22sse139449 0.1 1016155
05:00+21s129595 0.1 101670
08:00+24sw118011 0.1 1018208
11:00+29ene34525 0.0 10181383
14:00+31ene454779 0.0 10151183
17:00+29e465919 0.1 1013798
20:00+25ese37805 0.1 1016431
23 april, fri
fri2323:00+23se248828 0.1 1017186
02:00+23ese139042 0.1 1016162
05:00+22se12905 0.0 1016153
08:00+25se03755 0.1 1017420
11:00+29e34574 0.4 10171357
14:00+30ne45572 0.5 10151032
17:00+28ene457012 0.3 1014630
20:00+24e25851 0.9 1016190